STARLINK-34048, 63816

Orbit data source: Space-Track

STARLINK-34048, 63816 is a payload satellite owned by SpaceX/Seattle (US) in LEO that was launched on Sun, 04 May 2025 UTC via an FALCON 9 launch vehicle from the Air Force Eastern Test Range (AFETR). Payload-class satellites include a variety of spacecraft equipped with specific instruments for various scientific and technological missions. These include communications satellites like Starlink; space stations such as the ISS; scientific satellites like the Hubble; Earth observation satellites from companies like Planet Labs, Umbra, and HawkEye 360; GPS; miniature CubeSats for education and research; and military/defense satellites.

Loading next visibility...
Identifier
63816, 2025-092N
Orbit
LEO
Last TLE update
19 hours ago
Origin
Manufacturer
SpaceX/Seattle
Mission
Operational Commercial Communications
Bus & Motor
STARLINK V2MO, Unknown motor
Mass
575 kg wet, ~530 kg dry
Launch date (UTC)
2025-05-04 (2 months ago)
Launch vehicle
FALCON 9
Launch site
Air Force Eastern Test Range (AFETR)
Object type
Payload
Rocket body
Debris
Shape & HBR
Box + 1 Pan, 29 m
Radar Cross Section
41.120 m², Large (>1 m²)

Expand to show TLE details & history

TLE from 19 hours ago
0 STARLINK-34048
1 63816U 25092N   25189.48902118  .00012762  00000-0  47256-3 0  9995
2 63816  42.9978 111.9755 0000739 265.1912  94.8855 15.27572756 11311
Epoch: 2025-07-08T11:44Z
TLE epoch observation values (Epoch: 2025-07-08T11:44:11.429Z)
Latitude
-0.00005°
Longitude
9.24454°
Altitude
482.889 km
Speed
7.626 km/s
True Right ascension
07h 27m 54s
True Declination
0° 00' 00"
Sunlit
Object was in daylight at epoch
Visualization orbit readout
Latitude
42.34116°
Longitude
108.33154°
Altitude
486.479 km
Speed
7.628 km/s
Apparent Right ascension
10h 42m 16s
Apparent Declination
4° 54' 53"
Sunlit
Object is in daylight
Visualization observer readout
Local Sidereal Time
19:09:37
Azimuth
299.386° NW
Elevation
-23.779°
Doppler factor
1
Orbital elements
Apogee altitude
485.524 km
Perigee altitude
484.509 km
Semi-major axis
6,863.153 km
Eccentricity
0.00007
Inclination
42.9978°
RAAN
111.9755°
Arg. of periapsis
265.1912°
True anomaly
Unknown
Mean anomaly
94.8855°
Eccentric anomaly
Unknown
Mean motion
3.81731 °/min
Orbital period
94.31 mins
BSTAR
0.00047256
Loading maneuver chart data...
Loading SW <> Apogee altitude chart data...
Loading historical data...
Loading historical data...
Loading historical data...
Loading historical data...
Loading historical data...
Loading historical data...
Loading historical data...

STARLINK-34048 Visibility forecast

Observer location: undefined°, undefined°

Span
Click to sort rows by Start time (UTC) header in descending order
Start Az.
Max El. time (UTC)
Max El. Az.
Max El.
End time (UTC)
End Az.
4 mins2025-07-09 20:52:12.412Z176.97° S2025-07-09 20:54:12.412Z143.241° SSE14.927°2025-07-09 20:56:12.412Z108.911° ESE
6 mins2025-07-09 22:30:12.412Z237.345° WSW2025-07-09 22:33:12.412Z110.753° ESE40.894°2025-07-09 22:36:12.412Z74.902° E
6 mins2025-07-10 00:09:12.412Z281.226° WNW2025-07-10 00:12:12.412Z21.918° NNE37.6°2025-07-10 00:15:12.412Z72.322° E
5 mins2025-07-10 01:49:12.412Z296.93° NW2025-07-10 01:51:12.412Z36.138° NE42.218°2025-07-10 01:54:12.412Z95.077° ESE
5 mins2025-07-10 03:28:12.412Z259.779° W2025-07-10 03:30:12.412Z194.533° SSW30.851°2025-07-10 03:33:12.412Z141.343° SSE
|